Weather History for Lexington, NE

Change the Weather History Date:

Friday, November 9, 2012

  Actual Average Record
Temperature  
Mean Temperature 40 °F -  
Max Temperature 47 °F 49 °F 80 °F (1999)
Min Temperature 32 °F 25 °F 12 °F (2000)
Degree Days  
Heating Degree Days 26    
Moisture  
Dew Point 36 °F    
Average Humidity 88    
Maximum Humidity 97    
Minimum Humidity 71    
Precipitation  
Precipitation 0.00 in - - ()
Sea Level Pressure  
Sea Level Pressure 29.76 in    
Wind  
Wind Speed 6 mph (NE)    
Max Wind Speed 13 mph    
Max Gust Speed 20 mph    
Visibility 6 miles    
Events Fog    
Averages and records for this station are not official NWS values.
T = Trace of Precipitation, MM = Missing Value Source: NWS Daily Summary

Daily Weather History Graph

Daily Weather History Graph

Search for Another Location

Airport:

Trip Planner

Search our weather history database for the weather conditions in past years. The results will help you decide how hot, cold, wet, or windy it might be!

Date:

Astronomy

Nov. 09, 2012 Rise Set
Actual Time 7:19 AM CST 5:25 PM CST
Civil Twilight 6:50 AM CST 5:54 PM CST
Nautical Twilight 6:17 AM CST 6:27 PM CST
Astronomical Twilight 5:45 AM CST 6:59 PM CST
Moon 2:18 AM CST (11/9) 2:41 PM CST (11/9)
Length of Visible Light 11h 04m
Length of Day
10h 06m
Waning Crescent, 23% of the Moon is Illuminated
Nov 9
Waning Crescent
Nov 13
New
Nov 20
First Quarter
Nov 28
Full
Dec 6
Last Quarter

Hourly Weather History & Observations

Time (CST) Temp. Windchill Dew Point Humidity Pressure Visibility Wind Dir Wind Speed Gust Speed Precip Events Conditions
12:15 AM 38.1 °F 34.6 °F 31.1 °F 76% 29.86 in 10.0 mi NNE 4.6 mph - N/A   Clear
12:35 AM 37.8 °F 33.3 °F 31.8 °F 79% 29.86 in 10.0 mi North 5.8 mph - N/A   Clear
12:55 AM 37.8 °F - 32.0 °F 80% 29.87 in 10.0 mi Calm Calm - N/A   Clear
1:15 AM 36.5 °F 31.0 °F 32.0 °F 84% 29.84 in 10.0 mi NE 6.9 mph - N/A   Clear
1:35 AM 36.3 °F 33.7 °F 32.0 °F 84% 29.84 in 10.0 mi NNE 3.5 mph - N/A   Clear
1:55 AM 34.9 °F - 31.6 °F 88% 29.85 in 10.0 mi Calm Calm - N/A   Clear
2:15 AM 34.2 °F - 31.1 °F 89% 29.84 in 10.0 mi Calm Calm - N/A   Clear
2:35 AM 32.9 °F 27.5 °F 30.4 °F 90% 29.83 in 10.0 mi NNE 5.8 mph - N/A   Clear
2:55 AM 32.4 °F 26.9 °F 30.0 °F 91% 29.84 in 10.0 mi NNW 5.8 mph - N/A   Clear
3:15 AM 32.0 °F 25.6 °F 30.0 °F 92% 29.83 in 7.0 mi North 6.9 mph - N/A   Clear
3:35 AM 34.7 °F - 32.0 °F 90% 29.85 in 10.0 mi Calm Calm - N/A   Clear
3:55 AM 34.0 °F 27.2 °F 31.6 °F 91% 29.83 in 10.0 mi NNE 8.1 mph - N/A   Clear
4:15 AM 33.4 °F 26.6 °F 31.5 °F 92% 29.83 in 7.0 mi North 8.1 mph - N/A   Clear
4:35 AM 32.5 °F 27.1 °F 30.7 °F 93% 29.85 in 7.0 mi NNW 5.8 mph - N/A   Clear
4:55 AM 32.9 °F 25.9 °F 31.8 °F 96% 29.85 in 4.0 mi North 8.1 mph - N/A   Mostly Cloudy
5:15 AM 33.8 °F 26.4 °F 32.4 °F 94% 29.85 in 4.0 mi North 9.2 mph - N/A   Overcast
5:55 AM 35.1 °F 27.9 °F 33.8 °F 95% 29.84 in 3.0 mi NNE 9.2 mph - N/A   Overcast
6:15 AM 35.2 °F 30.3 °F 33.8 °F 94% 29.83 in 3.0 mi NE 5.8 mph - N/A   Overcast
6:35 AM 35.6 °F 28.6 °F 34.0 °F 94% 29.83 in 3.0 mi NNE 9.2 mph - N/A   Overcast
6:55 AM 35.6 °F 30.7 °F 34.3 °F 95% 29.85 in 3.0 mi North 5.8 mph - N/A   Overcast
7:35 AM 35.8 °F 28.8 °F 34.7 °F 96% 29.85 in 1.8 mi NNE 9.2 mph - N/A   Overcast
7:55 AM 36.0 °F 28.5 °F 34.7 °F 95% 29.84 in 2.0 mi NE 10.4 mph - N/A   Overcast
8:15 AM 36.1 °F 29.3 °F 34.7 °F 94% 29.83 in 1.2 mi NE 9.2 mph - N/A   Overcast
8:35 AM 36.5 °F 29.2 °F 34.9 °F 94% 29.83 in 2.0 mi NE 10.4 mph - N/A   Overcast
8:55 AM 36.5 °F 31.0 °F 35.1 °F 95% 29.85 in 1.8 mi NNE 6.9 mph - N/A   Overcast
9:15 AM 36.7 °F 30.5 °F 35.2 °F 95% 29.85 in 2.0 mi North 8.1 mph - N/A   Overcast
9:35 AM 36.9 °F 32.2 °F 35.2 °F 94% 29.85 in 2.5 mi North 5.8 mph - N/A   Overcast
9:55 AM 37.0 °F 30.4 °F 35.2 °F 93% 29.84 in 2.0 mi NNE 9.2 mph - N/A   Overcast
10:15 AM 37.4 °F 30.3 °F 35.4 °F 93% 29.83 in 4.0 mi NNE 10.4 mph - N/A   Overcast
10:55 AM 38.7 °F 31.8 °F 35.6 °F 89% 29.82 in 4.0 mi NNE 10.4 mph - N/A   Overcast
11:15 AM 39.2 °F 33.0 °F 36.0 °F 88% 29.81 in 5.0 mi NNE 9.2 mph - N/A   Overcast
11:35 AM 40.3 °F 33.4 °F 36.5 °F 86% 29.79 in 5.0 mi NE 11.5 mph - N/A   Overcast
11:55 AM 40.5 °F 34.1 °F 36.5 °F 86% 29.78 in 5.0 mi NE 10.4 mph - N/A   Haze
12:15 PM 41.4 °F 35.7 °F 36.5 °F 83% 29.77 in 7.0 mi ENE 9.2 mph - N/A   Overcast
12:35 PM 42.8 °F 36.6 °F 37.0 °F 80% 29.76 in 7.0 mi ENE 11.5 mph - N/A   Overcast
12:55 PM 43.7 °F 38.1 °F 37.4 °F 78% 29.74 in 7.0 mi ENE 10.4 mph 17.3 mph N/A   Overcast
1:15 PM 44.4 °F 39.5 °F 37.6 °F 77% 29.73 in 10.0 mi NE 9.2 mph - N/A   Overcast
1:35 PM 45.7 °F 40.2 °F 37.8 °F 74% 29.72 in 10.0 mi East 11.5 mph - N/A   Mostly Cloudy
1:55 PM 46.0 °F 40.2 °F 38.1 °F 74% 29.70 in 10.0 mi ENE 12.7 mph 19.6 mph N/A   Scattered Clouds
2:15 PM 47.3 °F - 38.5 °F 71% 29.69 in 10.0 mi East 10.4 mph - N/A   Clear
2:35 PM 47.5 °F - 38.7 °F 71% 29.70 in 10.0 mi East 9.2 mph - N/A   Clear
2:55 PM 47.3 °F - 38.7 °F 72% 29.69 in 10.0 mi East 9.2 mph - N/A   Clear
3:15 PM 47.5 °F - 39.2 °F 73% 29.70 in 10.0 mi ESE 8.1 mph - N/A   Scattered Clouds
3:35 PM 47.7 °F - 39.4 °F 73% 29.71 in 10.0 mi East 9.2 mph - N/A   Scattered Clouds
3:55 PM 46.0 °F 43.1 °F 38.8 °F 76% 29.71 in 7.0 mi ESE 5.8 mph - N/A   Overcast
4:15 PM 45.5 °F 40.8 °F 39.2 °F 79% 29.71 in 7.0 mi East 9.2 mph - N/A   Overcast
4:35 PM 44.8 °F 39.9 °F 39.2 °F 81% 29.71 in 7.0 mi ESE 9.2 mph - N/A   Overcast
4:55 PM 44.2 °F 39.7 °F 39.2 °F 82% 29.71 in 7.0 mi East 8.1 mph - N/A   Overcast
5:15 PM 43.7 °F 39.1 °F 39.2 °F 84% 29.71 in 5.0 mi SE 8.1 mph - N/A   Haze
5:35 PM 43.7 °F 39.1 °F 39.2 °F 84% 29.70 in 7.0 mi ESE 8.1 mph - N/A   Overcast
5:55 PM 43.5 °F - 39.2 °F 85% 29.70 in 7.0 mi Calm Calm - N/A   Overcast
6:15 PM 43.2 °F 40.5 °F 39.2 °F 86% 29.69 in 7.0 mi East 4.6 mph - N/A   Overcast
6:35 PM 42.3 °F 40.5 °F 38.8 °F 88% 29.68 in 7.0 mi NE 3.5 mph - N/A   Overcast
6:55 PM 41.9 °F 40.0 °F 38.5 °F 88% 29.69 in 5.0 mi North 3.5 mph - N/A   Overcast
7:15 PM 41.5 °F 37.8 °F 38.3 °F 88% 29.69 in 5.0 mi NNE 5.8 mph - N/A   Overcast
7:35 PM 41.5 °F 38.6 °F 38.3 °F 88% 29.69 in 7.0 mi North 4.6 mph - N/A   Overcast
7:55 PM 42.1 °F 39.2 °F 38.8 °F 88% 29.68 in 5.0 mi ENE 4.6 mph - N/A   Overcast
8:15 PM 41.0 °F 38.0 °F 38.5 °F 91% 29.67 in 5.0 mi North 4.6 mph - N/A   Overcast
8:35 PM 38.5 °F 34.1 °F 36.1 °F 91% 29.67 in 4.0 mi NNE 5.8 mph - N/A   Scattered Clouds
8:55 PM 38.3 °F 33.9 °F 36.3 °F 93% 29.66 in 4.0 mi NE 5.8 mph - N/A   Clear
9:15 PM 37.8 °F 34.2 °F 36.0 °F 93% 29.66 in 4.0 mi NE 4.6 mph - N/A   Mostly Cloudy
9:35 PM 40.1 °F 36.1 °F 38.5 °F 94% 29.66 in 2.0 mi NE 5.8 mph - N/A   Overcast
9:55 PM 41.0 °F 36.4 °F 39.6 °F 95% 29.64 in 1.5 mi ENE 6.9 mph - N/A   Overcast
10:15 PM 40.5 °F 37.3 °F 39.2 °F 95% 29.64 in 0.5 mi ENE 4.6 mph - N/A Fog Fog
10:35 PM 40.1 °F - 38.8 °F 95% 29.62 in 0.5 mi Calm Calm - N/A Fog Fog
10:55 PM 39.2 °F - 38.3 °F 97% 29.62 in 0.2 mi Calm Calm - N/A Fog Fog
11:15 PM 38.7 °F 35.2 °F 37.6 °F 96% 29.61 in 0.2 mi NW 4.6 mph - N/A Fog Fog
11:35 PM 38.3 °F 34.8 °F 37.4 °F 97% 29.61 in 0.2 mi NW 4.6 mph - N/A Fog Fog
11:55 PM 38.3 °F 34.8 °F 37.4 °F 97% 29.60 in 0.5 mi NNW 4.6 mph - N/A Fog Fog